Terminal Aerodrome Forecast
Issued by NWS Hastings, NE

Home | Current Version | Previous Version | Text Only | Print | Product List | Glossary On
Versions: 1 2 3 4 5 6 7 8 9 10 11 12 13 14
000
FTUS45 KGID 271724
TAFEAR
TAF
KEAR 271724Z 2718/2818 16010KT P6SM FEW070 SCT120
     FM280600 16009KT P6SM SCT030 OVC050
     FM281100 17012KT P6SM SCT015 BKN025
      AMD LTD TO CLD VIS AND WIND=

USA.gov is the U.S. government's official web portal to all federal, state and local government web resources and services.